Location: Castillon
(43.0896°N, 0.2156°E)
Time: 01:34:26
(UTC+00:00)

SL-24 DEB - Pass Details

Date: 16 June 2021
Orbit: 664 x 700 km, 92.0° (Epoch: 25 July)

Event Time Altitude Azimuth Distance (km) Brightness Sun altitude
Rises 20:12:52 0° 175° (S) 3,042 7.2 -5.5°
Reaches altitude 10° 20:15:07 10° 175° (S) 2,136 6.4 -5.8°
Maximum altitude 20:19:50 86° 263° (W) 703 4.4 -6.5°
Drops below altitude 10° 20:24:38 10° 354° (N) 2,170 7.6 -7.1°
Sets 20:26:56 0° 355° (N) 3,095 8.4 -7.5°
